Weather History for Beach, ND

Change the Weather History Date:

Wednesday, March 20, 2013

  Actual Average (KGDV) Record (KGDV)
Temperature  
Mean Temperature 20 °F -  
Max Temperature 35 °F 41 °F 73 °F (2007)
Min Temperature 5 °F 20 °F 5 °F (2002)
Degree Days  
Heating Degree Days 45    
Moisture  
Dew Point 10 °F    
Average Humidity 62    
Maximum Humidity 85    
Minimum Humidity 44    
Precipitation  
Precipitation 0.01 in - - ()
Sea Level Pressure  
Sea Level Pressure 30.03 in    
Wind  
Wind Speed 12 mph (SE)    
Max Wind Speed 30 mph    
Max Gust Speed 40 mph    
Visibility 10 miles    
Events Rain , Snow    
Averages and records for this station are not official NWS values.
T = Trace of Precipitation, MM = Missing Value Source: NWS Daily Summary

Daily Weather History Graph

Daily Weather History Graph

Search for Another Location

Airport:

Trip Planner

Search our weather history database for the weather conditions in past years. The results will help you decide how hot, cold, wet, or windy it might be!

Date:

Astronomy

Mar. 20, 2013 Rise Set
Actual Time 6:58 AM MDT 7:09 PM MDT
Civil Twilight 6:28 AM MDT 7:39 PM MDT
Nautical Twilight 5:52 AM MDT 8:15 PM MDT
Astronomical Twilight 5:15 AM MDT 8:52 PM MDT
Moon 12:26 PM MDT (3/20) 3:00 AM MDT (3/20)
Length of Visible Light 13h 11m
Length of Day
12h 10m
First Quarter, 60% of the Moon is Illuminated
Mar 20
First Quarter
Mar 27
Full
Apr 2
Last Quarter
Apr 10
New
Apr 18
First Quarter

Hourly Weather History & Observations

Time (MDT) Temp. Windchill Dew Point Humidity Pressure Visibility Wind Dir Wind Speed Gust Speed Precip Events Conditions
12:15 AM 6.8 °F -3.5 °F 1.4 °F 79% 30.30 in 10.0 mi South 5.8 mph - N/A   Clear
12:35 AM 5.0 °F -4.1 °F 1.4 °F 85% 30.30 in 10.0 mi South 4.6 mph - N/A   Clear
12:55 AM 6.8 °F -2.0 °F -0.4 °F 72% 30.30 in 10.0 mi South 4.6 mph - N/A   Clear
1:15 AM 5.0 °F -4.1 °F 1.4 °F 85% 30.29 in 10.0 mi South 4.6 mph - N/A   Clear
1:35 AM 6.8 °F -3.5 °F -0.4 °F 72% 30.29 in 10.0 mi South 5.8 mph - N/A   Clear
1:55 AM 5.0 °F -4.1 °F -0.4 °F 78% 30.28 in 10.0 mi South 4.6 mph - N/A   Clear
2:15 AM 5.0 °F -6.9 °F -0.4 °F 78% 30.28 in 10.0 mi South 6.9 mph - N/A   Clear
2:35 AM 6.8 °F -0.1 °F -0.4 °F 72% 30.27 in 10.0 mi SE 3.5 mph - N/A   Clear
2:55 AM 6.8 °F -0.1 °F -0.4 °F 72% 30.26 in 10.0 mi SSE 3.5 mph - N/A   Clear
3:15 AM 6.8 °F -0.1 °F -0.4 °F 72% 30.26 in 10.0 mi SE 3.5 mph - N/A   Clear
3:35 AM 6.8 °F -2.0 °F -0.4 °F 72% 30.25 in 10.0 mi SSE 4.6 mph - N/A   Clear
3:55 AM 5.0 °F -2.1 °F -0.4 °F 78% 30.25 in 10.0 mi South 3.5 mph - N/A   Clear
4:15 AM 6.8 °F -5.9 °F -0.4 °F 72% 30.23 in 10.0 mi South 8.1 mph - N/A   Clear
4:35 AM 8.6 °F -2.6 °F 1.4 °F 73% 30.22 in 10.0 mi SSE 6.9 mph - N/A   Clear
4:55 AM 8.6 °F -2.6 °F 1.4 °F 73% 30.21 in 10.0 mi SSE 6.9 mph - N/A   Clear
5:15 AM 10.4 °F -3.3 °F 1.4 °F 67% 30.20 in 10.0 mi SSE 10.4 mph - N/A   Clear
5:35 AM 10.4 °F -2.4 °F 1.4 °F 67% 30.19 in 10.0 mi SSE 9.2 mph - N/A   Clear
5:55 AM 10.4 °F -1.5 °F 1.4 °F 67% 30.19 in 10.0 mi SSE 8.1 mph - N/A   Clear
6:15 AM 12.2 °F -1.8 °F 3.2 °F 67% 30.18 in 10.0 mi SSE 11.5 mph - N/A   Clear
6:35 AM 10.4 °F -3.3 °F 5.0 °F 79% 30.17 in 10.0 mi SE 10.4 mph - N/A   Clear
6:55 AM 10.4 °F -1.5 °F 5.0 °F 79% 30.17 in 10.0 mi SSE 8.1 mph - N/A   Clear
7:15 AM 10.4 °F -2.4 °F 5.0 °F 79% 30.16 in 10.0 mi SE 9.2 mph - N/A   Clear
7:35 AM 12.2 °F 0.7 °F 5.0 °F 73% 30.15 in 10.0 mi SE 8.1 mph - N/A   Clear
7:55 AM 14.0 °F 0.5 °F 6.8 °F 73% 30.14 in 10.0 mi SSE 11.5 mph - N/A   Clear
8:15 AM 15.8 °F 2.1 °F 6.8 °F 68% 30.13 in 10.0 mi SSE 12.7 mph - N/A   Clear
8:35 AM 17.6 °F 4.3 °F 6.8 °F 63% 30.12 in 10.0 mi SSE 12.7 mph 18.4 mph N/A   Clear
8:55 AM 17.6 °F 3.2 °F 8.6 °F 68% 30.11 in 10.0 mi SSE 15.0 mph - N/A   Clear
9:15 AM 19.4 °F 4.5 °F 8.6 °F 63% 30.10 in 10.0 mi SSE 17.3 mph - N/A   Clear
9:55 AM 21.2 °F 7.3 °F 10.4 °F 63% 30.08 in 10.0 mi SSE 16.1 mph 21.9 mph N/A   Clear
10:15 AM 23.0 °F 9.6 °F 10.4 °F 59% 30.07 in 10.0 mi SSE 16.1 mph - N/A   Clear
10:35 AM 24.8 °F 11.9 °F 12.2 °F 59% 30.07 in 10.0 mi SSE 16.1 mph - N/A   Partly Cloudy
10:55 AM 26.6 °F 15.7 °F 14.0 °F 59% 30.07 in 10.0 mi SE 12.7 mph 18.4 mph N/A   Clear
11:15 AM 26.6 °F 14.3 °F 14.0 °F 59% 30.07 in 10.0 mi SSE 16.1 mph - N/A   Clear
11:35 AM 28.4 °F 16.2 °F 14.0 °F 55% 30.05 in 10.0 mi SE 17.3 mph 20.7 mph N/A   Clear
11:55 AM 28.4 °F 16.2 °F 15.8 °F 59% 30.05 in 10.0 mi SE 17.3 mph 21.9 mph N/A   Clear
12:15 PM 32.0 °F 21.2 °F 15.8 °F 51% 30.04 in 10.0 mi SSE 16.1 mph - N/A   Clear
12:35 PM 32.0 °F 19.8 °F 15.8 °F 51% 30.03 in 10.0 mi SE 20.7 mph 25.3 mph N/A   Clear
12:55 PM 32.0 °F 20.5 °F 14.0 °F 48% 30.02 in 10.0 mi SE 18.4 mph 25.3 mph N/A   Clear
1:15 PM 32.0 °F 19.8 °F 14.0 °F 48% 30.00 in 10.0 mi SSE 20.7 mph 28.8 mph N/A   Clear
1:35 PM 32.0 °F 19.2 °F 15.8 °F 51% 29.98 in 10.0 mi SE 23.0 mph 28.8 mph N/A   Clear
1:55 PM 33.8 °F 22.5 °F 15.8 °F 48% 29.97 in 10.0 mi SE 19.6 mph 29.9 mph N/A   Clear
2:15 PM 33.8 °F 21.6 °F 15.8 °F 48% 29.95 in 10.0 mi SE 23.0 mph 31.1 mph N/A   Clear
2:35 PM 35.6 °F 23.7 °F 15.8 °F 44% 29.94 in 10.0 mi SE 24.2 mph 34.5 mph N/A   Clear
2:55 PM 35.6 °F 24.2 °F 15.8 °F 44% 29.93 in 10.0 mi SE 21.9 mph 32.2 mph N/A   Clear
3:15 PM 35.6 °F 23.4 °F 15.8 °F 44% 29.92 in 10.0 mi SE 25.3 mph 33.4 mph N/A   Clear
3:35 PM 35.6 °F 24.8 °F 17.6 °F 48% 29.91 in 10.0 mi SE 19.6 mph 29.9 mph N/A   Clear
3:55 PM 35.6 °F 24.5 °F 17.6 °F 48% 29.90 in 10.0 mi SE 20.7 mph 28.8 mph N/A   Clear
4:15 PM 35.6 °F 23.4 °F 17.6 °F 48% 29.89 in 10.0 mi SE 25.3 mph 32.2 mph N/A   Clear
4:35 PM 35.6 °F 24.2 °F 17.6 °F 48% 29.88 in 10.0 mi ESE 21.9 mph 31.1 mph N/A   Clear
4:55 PM 35.6 °F 23.4 °F 17.6 °F 48% 29.87 in 10.0 mi ESE 25.3 mph 32.2 mph N/A   Clear
5:15 PM 33.8 °F 21.0 °F 17.6 °F 52% 29.86 in 10.0 mi ESE 25.3 mph 31.1 mph N/A   Clear
5:35 PM 33.8 °F 21.6 °F 17.6 °F 52% 29.86 in 10.0 mi ESE 23.0 mph 31.1 mph N/A   Clear
5:55 PM 32.0 °F 19.5 °F 17.6 °F 55% 29.86 in 10.0 mi ESE 21.9 mph 29.9 mph N/A   Clear
6:15 PM 32.0 °F 19.5 °F 17.6 °F 55% 29.85 in 10.0 mi ESE 21.9 mph 29.9 mph N/A   Clear
6:35 PM 32.0 °F 19.8 °F 17.6 °F 55% 29.85 in 10.0 mi ESE 20.7 mph 26.5 mph N/A   Partly Cloudy
6:55 PM 32.0 °F 19.2 °F 15.8 °F 51% 29.84 in 10.0 mi ESE 23.0 mph 31.1 mph N/A   Mostly Cloudy
7:15 PM 32.0 °F 19.2 °F 15.8 °F 51% 29.83 in 10.0 mi ESE 23.0 mph 31.1 mph N/A   Overcast
7:35 PM 32.0 °F 19.5 °F 14.0 °F 48% 29.83 in 10.0 mi ESE 21.9 mph 32.2 mph N/A   Overcast
7:55 PM 32.0 °F 18.9 °F 14.0 °F 48% 29.83 in 10.0 mi ESE 24.2 mph 32.2 mph N/A   Overcast
8:15 PM 32.0 °F 19.2 °F 14.0 °F 48% 29.83 in 10.0 mi ESE 23.0 mph 31.1 mph N/A   Overcast
8:35 PM 30.2 °F 16.5 °F 14.0 °F 51% 29.82 in 10.0 mi SE 24.2 mph 35.7 mph N/A   Overcast
8:55 PM 28.4 °F 14.1 °F 15.8 °F 59% 29.82 in 10.0 mi SE 24.2 mph 31.1 mph N/A   Overcast
9:15 PM 28.4 °F 15.4 °F 15.8 °F 59% 29.82 in 10.0 mi SE 19.6 mph 29.9 mph N/A   Overcast
9:35 PM 28.4 °F 15.1 °F 15.8 °F 59% 29.82 in 10.0 mi SE 20.7 mph 31.1 mph N/A   Overcast
9:55 PM 26.6 °F 10.6 °F 15.8 °F 64% 29.81 in 10.0 mi SE 28.8 mph 35.7 mph N/A Rain Light Freezing Rain
10:15 PM 26.6 °F 10.6 °F 15.8 °F 64% 29.82 in 10.0 mi SE 28.8 mph 35.7 mph N/A   Overcast
10:35 PM 24.8 °F 8.1 °F 15.8 °F 69% 29.82 in 10.0 mi SE 28.8 mph 35.7 mph 0.01 in Snow Light Snow
10:55 PM 24.8 °F 7.9 °F 15.8 °F 69% 29.80 in 10.0 mi SE 29.9 mph 40.3 mph 0.01 in   Overcast
11:15 PM 24.8 °F 9.0 °F 15.8 °F 69% 29.79 in 10.0 mi SE 25.3 mph 40.3 mph N/A Rain Light Freezing Rain
11:35 PM 23.0 °F 7.6 °F 14.0 °F 68% 29.80 in 10.0 mi SE 21.9 mph 34.5 mph N/A   Overcast